Regional Weather Roundup
Issued by NWS

Home | Current Version | Previous Version | Text Only | Print | Product List | Glossary Off
Versions: 1 2 3 4 5 6 7 8 9 10 11 12 13 14 15 16 17 18 19 20 21 22 23 24 25 26 27 28 29 30 31 32 33 34 35 36 37 38 39 40 41 42 43 44 45 46 47 48 49 50

000
ASUS43 KLOT 270206
RWRIL

ILLINOIS REGIONAL WEATHER ROUNDUP
NATIONAL WEATHER SERVICE CHICAGO/ROMEOVILLE IL
800 PM CST WED NOV 26 2014

NOTE: "FAIR" INDICATES FEW OR NO CLOUDS BELOW 12,000 FEET WITH NO
SIGNIFICANT WEATHER AND/OR OBSTRUCTIONS TO VISIBILITY.

* THESE STATIONS ARE NOT UNDER NWS QUALITY CONTROL. THEY ALSO MAY NOT
  REPORT WEATHER SUCH AS PRECIPITATION OR FOG.

ILZ001-002-007-009-015-016-024-270300-
NORTHWEST ILLINOIS

CITY           SKY/WX    TMP DP  RH WIND       PRES   REMARKS
MOLINE         CLOUDY    28  20  71 N9        30.20R WCI  19
STERLING*      CLOUDY    25  18  74 N7        30.20R WCI  17
SAVANNA*       CLOUDY    26  20  77 N7        30.21R WCI  19
$$

ILZ003-004-008-010-011-017-018-270300-
NORTH CENTRAL ILLINOIS

CITY           SKY/WX    TMP DP  RH WIND       PRES   REMARKS
ROCKFORD       CLOUDY    24  19  81 N9        30.20R HAZE    WCI  14
FREEPORT*      CLOUDY    23  19  84 N7        30.20R WCI  15
ROCHELLE*      CLOUDY    25  20  83 NW6       30.18R WCI  18
DE KALB*       CLOUDY    24  21  89 N8        30.16R FOG     WCI  15
PERU*          CLOUDY    26  22  84 N7        30.19R WCI  18
$$

ILZ005-006-012>014-019>023-270300-
NORTHEAST ILLINOIS

CITY           SKY/WX    TMP DP  RH WIND       PRES   REMARKS
CHICAGO-OHARE  CLOUDY    29  23  78 N7        30.14R WCI  22
CHICAGO-MIDWAY FLURRIES  32  22  66 NE5       30.14R WCI  27
AURORA         CLOUDY    26  21  81 W5        30.16R HAZE    WCI  20
LANSING*       CLOUDY    28  21  77 CALM      30.15R
JOLIET*        CLOUDY    26  19  75 CALM      30.16S
WAUKEGAN       CLOUDY    27  23  85 NW6       30.14R WCI  20
DUPAGE AIRPORT CLOUDY    28  22  78 CALM      30.14R
KANKAKEE*      CLOUDY   N/A N/A N/A N8        30.15R
WHEELING       CLOUDY    29  23  78 NW7       30.16R WCI  22
MORRIS*        CLOUDY    26  23  88 CALM      30.16R
ROMEOVILLE*    CLOUDY    26  21  80 CALM      30.15R
NORTHERLY ISL    N/A     30  22  72 N7          N/A  WCI  23
$$

LMZ740>746-270300-
SOUTHERN LAKE MICHIGAN

STATION/POSITION SKY/WX   TEMP    WIND        PRES    VSBY  WAVE
                          AIR SEA DIR/SP/G                  HT/PER
                          (F)     (DEG/KT/KT) (MB)    (MI)  (FT/S)
SOUTHERN BUOY              33 42   20/  2/  4 1021.1R         1
WAUKEGAN HARBOR            28     320/ 10/ 12   N/A
HARRISON CRIB              31      40/  9/ 11   N/A
BURNHAM HARBOR             30      40/  5/ 12   N/A
CALUMET HARBOR             31      30/  4/  7 1019.3S
MICHIGAN CITY              27     110/  4/  5   N/A
$$

ILZ025>027-034>036-040-047-049-050-058-095>099-270300-
WEST-CENTRAL ILLINOIS

CITY           SKY/WX    TMP DP  RH WIND       PRES   REMARKS
QUINCY         CLOUDY    31  28  89 NE14      30.12R FOG     WCI  21
GALESBURG*     LGT SNOW  27  25  93 N14       30.17R WCI  15
MACOMB*        LGT SNOW  28  28  96 NE12      30.18R WCI  18
JACKSONVILLE*  LGT SNOW  31  29  92 NE8       30.11R WCI  24
PITTSFIELD*    CLOUDY    32  31  98 N9        30.11R WCI  24
$$

ILZ028>032-037-038-041>044-048-051>054-059>061-270300-
CENTRAL ILLINOIS

CITY           SKY/WX    TMP DP  RH WIND       PRES   REMARKS
PONTIAC        CLOUDY    28  24  84 N8        30.16R WCI  20
BLOOMINGTON    CLOUDY    26  24  92 NE9       30.13R WCI  17
DECATUR        LGT SNOW  29  26  89 NE8       30.11R FOG     WCI  21
PEORIA         LGT SNOW  29  23  78 NE9       30.16R WCI  20
LACON*         CLOUDY    27  21  80 N8        30.17R WCI  18
LINCOLN*       LGT SNOW  30  28  91 N8        30.14R WCI  22
SPRINGFIELD    LGT SNOW  29  27  92 NE10      30.11R FOG     WCI  20
TAYLORVILLE    LGT SNOW  30  28  93 NE7       30.10R WCI  23
$$

ILZ033-039-045-046-055>057-062-063-270300-
EAST-CENTRAL ILLINOIS

CITY           SKY/WX    TMP DP  RH WIND       PRES   REMARKS
CHAMPAIGN      LGT SNOW  29  25  85 N12       30.10R FOG     WCI  19
DANVILLE*      CLOUDY    28  24  85 NE10      30.08R WCI  18
RANTOUL*       CLOUDY    30  24  80 NE8       30.11R WCI  22
MATTOON        CLOUDY    30  25  81 N5        30.08R WCI  25
PARIS*         CLOUDY    31  28  87 N3        30.09R
$$

ILZ079-100>102-270300-
SOUTHWEST ILLINOIS

CITY           SKY/WX    TMP DP  RH WIND       PRES   REMARKS
ALTON          CLOUDY    32  32 100 CALM      30.07R FOG
BELLEVILLE     CLOUDY    33  33 100 CALM      30.06R FOG
CAHOKIA*       LGT SNOW  33  33 100 CALM      30.08R VSB 1
SPARTA*        CLOUDY    32  32  99 CALM      30.07R FOG
$$

ILZ064>066-069>071-074>076-080>082-084>086-088>090-092>094-270300-
SOUTH-CENTRAL ILLINOIS

CITY           SKY/WX    TMP DP  RH WIND       PRES   REMARKS
CARBONDALE     CLOUDY    32  31  96 W5        30.07R FOG     WCI  27
CAIRO*         CLOUDY    40  35  83 W9        30.09R
EFFINGHAM*     LGT SNOW  31  28  91 NE3       30.08S
MARION         CLOUDY    34  32  93 CALM      30.06S FOG
MT. VERNON     CLOUDY    34  28  80 N3        30.06S
CENTRALIA*     LGT SNOW  32  31  96 CALM      30.06S
SALEM*         LGT SNOW  34  32  93 NE3       30.07R
METROPOLIS*    CLOUDY    37  37 100 W7          N/A  WCI  32
$$

ILZ067-068-072-073-078-083-087-091-270300-
SOUTHEAST ILLINOIS

CITY           SKY/WX    TMP DP  RH WIND       PRES   REMARKS
LAWRENCEVILLE  LGT SNOW  32  31  96 N8        30.08S FOG     WCI  25
FLORA*         MIX PCPN  32  32 100 NE5       30.08R WCI  27
FAIRFIELD*     LGT SNOW  33  32  98 N3        30.06R
HARRISBURG*    LGT RAIN  32  32 100 CALM      30.07R
ROBINSON*      CLOUDY    32  31  96 NW3       30.09S
CARMI*         LGT RAIN  34  34 100 NE3       30.05R
$$

ABBREVIATIONS USED IN REMARKS
   TC - TEMPERATURE IN CELSIUS
  WCI - WIND CHILL INDEX
   HX - HEAT INDEX
  VSB - VISIBILITY
$$




USA.gov is the U.S. government's official web portal to all federal, state and local government web resources and services.